VA3PPY Weather Reports


time (UTC)temp
C
wind
direction
speed
KPH
gust
KPH
rain 1hr
cm
rain 24hr
cm
rain mn
cm
humidity
%
barometer
mb
20260904010012 18 45 0.0 0.0 0.00 0.84 0.76 96 1013.0
20260904004512 19 45 0.0 0.0 0.00 1.17 0.76 96 1012.5
20260904003012 19 45 0.0 0.0 0.00 1.17 0.76 96 1012.2
20260904001512 19 45 0.0 0.0 0.00 1.17 0.76 96 1012.3
20260904000012 20 45 0.0 0.0 0.00 1.17 0.76 96 1012.2
20260903234512 20 45 0.0 1.6 0.00 1.19 0.76 96 1012.2
20260903233013 20 45 0.0 0.0 0.00 1.19 0.76 96 1012.3
20260903231513 20 45 0.0 0.0 0.00 1.19 0.76 96 1012.4
20260903230025 20 45 0.0 0.0 0.00 1.19 0.76 96 1012.1
20260903224512 20 45 0.0 3.2 0.00 1.22 0.76 96 1012.0
20260903223012 20 45 0.0 3.2 0.00 1.22 0.76 96 1010.8
20260903221515 20 45 1.6 4.8 0.05 1.22 0.76 96 1010.6
20260903220012 20 321 1.6 8.0 0.18 1.22 0.76 96 1011.4
20260903214528 21 319 3.2 9.7 0.30 1.52 0.76 96 1012.0
20260903213019 21 300 0.0 1.6 0.36 1.52 0.76 96 1011.8
20260903211512 21 300 0.0 8.0 0.51 1.45 0.71 96 1012.1
20260903210013 21 338 1.6 8.0 0.53 1.35 0.58 96 1013.3
20260903204513 21 313 1.6 9.7 0.43 1.22 0.46 95 1013.7
20260903203012 21 291 1.6 8.0 0.38 1.17 0.41 95 1013.1
20260903201512 22 278 1.6 6.4 0.18 0.97 0.20 95 1013.9
20260903200013 22 255 0.0 4.8 0.03 0.81 0.05 95 1013.9
20260903194513 22 254 0.0 4.8 0.00 0.79 0.03 94 1011.9
20260903193014 22 254 0.0 3.2 0.00 0.79 0.03 93 1011.8
20260903191513 22 254 0.0 6.4 0.00 0.79 0.03 93 1011.4
20260903190014 22 254 0.0 4.8 0.00 0.79 0.03 93 1011.8
20260903184513 22 253 0.0 3.2 0.00 0.79 0.03 93 1011.9
20260903183013 22 253 0.0 6.4 0.00 0.79 0.03 93 1012.1
20260903181517 22 253 0.0 9.7 0.00 0.79 0.03 92 1012.2
20260903180035 23 253 1.6 9.7 0.00 0.79 0.03 91 1012.7
20260903174514 23 253 1.6 9.7 0.00 0.79 0.03 90 1013.0
20260903173013 24 253 0.0 3.2 0.00 0.79 0.03 88 1012.7
20260903171514 25 253 1.6 4.8 0.00 0.79 0.03 86 1013.0
20260903170020 25 253 0.0 9.7 0.00 0.79 0.03 88 1012.8
20260903164514 25 253 0.0 4.8 0.00 0.79 0.03 89 1012.9
20260903163013 25 253 0.0 4.8 0.00 0.79 0.03 90 1013.0
20260903161516 23 253 1.6 9.7 0.00 0.79 0.03 92 1013.1
20260903160014 23 149 3.2 9.7 0.00 0.79 0.03 93 1013.2
20260903154514 22 148 1.6 8.0 0.00 0.79 0.03 94 1012.9
20260903153014 22 146 0.0 4.8 0.00 0.79 0.03 94 1012.7
20260903151514 22 146 0.0 9.7 0.00 0.79 0.03 95 1012.5
20260903150015 22 146 1.6 6.4 0.00 0.79 0.03 95 1012.3
20260903144520 22 146 1.6 6.4 0.00 0.79 0.03 96 1012.4
20260903143015 22 146 0.0 6.4 0.00 0.79 0.03 96 1012.6
20260903141521 22 146 0.0 4.8 0.00 0.79 0.03 97 1012.5
20260903140014 22 146 0.0 3.2 0.00 0.79 0.03 97 1012.4
20260903134514 22 146 0.0 3.2 0.00 0.79 0.03 97 1012.6
20260903133015 21 146 0.0 4.8 0.00 0.79 0.03 97 1012.5
20260903131515 21 146 1.6 4.8 0.00 0.79 0.03 97 1012.6
20260903130017 21 146 0.0 4.8 0.00 0.79 0.03 97 1012.7
20260903124514 20 146 0.0 6.4 0.00 0.79 0.03 97 1012.9
20260903123028 20 146 0.0 0.0 0.00 0.79 0.03 97 1012.8
20260903121515 19 146 0.0 1.6 0.00 0.79 0.03 97 1012.6
20260903120015 19 146 0.0 0.0 0.00 0.79 0.03 97 1012.6
20260903114515 18 146 0.0 0.0 0.00 0.79 0.03 97 1012.5
20260903113022 18 146 0.0 0.0 0.00 0.79 0.03 97 1012.4
20260903111515 18 146 0.0 4.8 0.00 0.79 0.03 97 1012.3
20260903110015 18 146 0.0 0.0 0.00 0.79 0.03 97 1012.2
20260903104515 18 146 0.0 1.6 0.00 0.79 0.03 97 1012.1
20260903103015 18 146 0.0 0.0 0.00 0.79 0.03 97 1012.0
20260903101516 18 146 0.0 0.0 0.00 0.79 0.03 97 1011.9
20260903100023 18 146 0.0 0.0 0.00 0.79 0.03 97 1011.8
20260903094515 18 146 0.0 0.0 0.00 0.79 0.03 97 1011.7
20260903093037 18 146 0.0 0.0 0.00 0.79 0.03 97 1011.6
20260903091516 18 146 0.0 0.0 0.00 0.79 0.03 97 1011.5
20260903090021 18 146 0.0 0.0 0.00 0.79 0.03 97 1011.4
20260903084527 18 146 0.0 0.0 0.00 0.79 0.03 97 1011.3
20260903083016 18 146 0.0 0.0 0.00 0.79 0.03 97 1011.3
20260903081516 19 146 0.0 0.0 0.00 0.79 0.03 97 1011.1
20260903080016 19 146 0.0 0.0 0.00 0.79 0.03 97 1011.2
20260903074516 19 146 0.0 0.0 0.00 0.79 0.03 97 1011.2
20260903073016 19 146 0.0 0.0 0.00 0.79 0.03 97 1011.1
20260903071519 19 146 0.0 0.0 0.00 0.79 0.03 97 1010.9
20260903070020 19 146 0.0 0.0 0.00 0.79 0.03 97 1010.9
20260903064516 20 146 0.0 0.0 0.00 0.79 0.03 97 1011.0
20260903063016 20 146 0.0 0.0 0.03 0.79 0.03 97 1011.2
20260903061517 20 146 0.0 3.2 0.03 0.79 0.03 97 1011.3
20260903060016 20 146 0.0 3.2 0.03 0.79 0.03 96 1011.4
20260903054522 20 146 0.0 4.8 0.03 0.79 0.03 97 1011.6
20260903053016 20 146 0.0 3.2 0.00 0.76 0.00 97 1011.7
20260903051517 20 146 0.0 1.6 0.00 0.76 0.00 97 1011.6
20260903050016 20 146 0.0 1.6 0.00 0.76 0.00 97 1011.2
20260903044516 20 146 0.0 4.8 0.00 0.76 0.00 97 1011.0
20260903043017 20 142 1.6 6.4 0.00 0.76 0.00 96 1011.0
20260903041518 20 142 0.0 4.8 0.00 0.76 0.00 96 1010.6
20260903040017 20 142 0.0 0.0 0.00 0.76 0.00 96 1010.2
20260903034517 20 142 0.0 0.0 0.00 0.76 0.76 96 1010.3
20260903033029 20 142 0.0 0.0 0.00 0.76 0.76 96 1010.5
20260903031518 20 142 0.0 0.0 0.00 0.76 0.76 96 1010.0
20260903030018 20 142 0.0 0.0 0.00 0.76 0.76 96 1009.8
20260903024517 20 142 0.0 4.8 0.00 0.76 0.76 96 1010.5
20260903023019 21 142 0.0 4.8 0.00 0.76 0.76 96 1010.8
20260903021525 21 129 0.0 12.9 0.08 0.76 0.76 96 1010.8
20260903020017 21 151 1.6 4.8 0.08 0.76 0.76 96 1011.1
20260903014517 21 151 0.0 3.2 0.10 0.76 0.76 96 1010.9
20260903013017 21 151 0.0 11.3 0.38 0.71 0.71 96 1011.3
20260903011517 20 302 0.0 3.2 0.33 0.69 0.69 96 1010.7